When you browse on this site, cookies collect data to enhance your experience and personalize the content and advertising you see.
Visit our Privacy Policy to learn more. By continuing to use the site, you agree to this use of cookies and data.
  • In Sweden
  • List of Countries
  • For 7 days
  • Water Temperature
  • Weather Map
  • Weather Widgets
  • user-avatar
    Login

    Hourly Weather Diapaga

    Today, 10 April, Friday

    Time Temperature Precipitation Wind Pressure Humidity
    00:00 +34°C° 0.1 mm 3 mps 735 mmHg 31%
    01:00 +33°C° 0 mm 4 mps 735 mmHg 38%
    02:00 +32°C° 0 mm 5 mps 734 mmHg 44%
    03:00 +29°C° 0 mm 5 mps 734 mmHg 50%
    04:00 +29°C° 0 mm 5 mps 734 mmHg 49%
    05:00 +29°C° 0 mm 4 mps 734 mmHg 47%
    06:00 +29°C° 0 mm 4 mps 735 mmHg 46%
    07:00 +30°C° 0 mm 4 mps 735 mmHg 43%
    08:00 +32°C° 0 mm 4 mps 735 mmHg 40%
    09:00 +34°C° 0 mm 4 mps 735 mmHg 37%
    10:00 +35°C° 0 mm 4 mps 735 mmHg 33%
    11:00 +36°C° 0 mm 4 mps 735 mmHg 29%
    12:00 +38°C° 0 mm 3 mps 734 mmHg 25%
    13:00 +38°C° 0 mm 3 mps 733 mmHg 25%
    14:00 +37°C° 0 mm 2 mps 733 mmHg 25%
    15:00 +37°C° 0 mm 2 mps 732 mmHg 26%
    16:00 +37°C° 0 mm 2 mps 732 mmHg 25%
    17:00 +36°C° 0 mm 2 mps 732 mmHg 24%
    18:00 +36°C° 0 mm 2 mps 732 mmHg 23%
    19:00 +36°C° 0 mm 2 mps 733 mmHg 21%
    20:00 +36°C° 0 mm 2 mps 734 mmHg 20%
    21:00 +35°C° 0 mm 2 mps 734 mmHg 19%
    22:00 +35°C° 0 mm 2 mps 734 mmHg 20%
    23:00 +35°C° 0 mm 2 mps 734 mmHg 20%

    Tomorrow, 11 April, Saturday

    Time Temperature Precipitation Wind Pressure Humidity
    00:00 +34°C° 0 mm 2 mps 733 mmHg 21%
    01:00 +34°C° 0 mm 2 mps 733 mmHg 22%
    02:00 +34°C° 0 mm 2 mps 733 mmHg 23%
    03:00 +33°C° 0 mm 1 mps 733 mmHg 23%
    04:00 +32°C° 0 mm 1 mps 733 mmHg 24%
    05:00 +32°C° 0 mm 1 mps 733 mmHg 25%
    06:00 +31°C° 0 mm 1 mps 734 mmHg 26%
    07:00 +32°C° 0 mm 2 mps 734 mmHg 25%
    08:00 +34°C° 0 mm 2 mps 735 mmHg 24%
    09:00 +35°C° 0 mm 2 mps 735 mmHg 24%
    10:00 +38°C° 0 mm 3 mps 735 mmHg 20%
    11:00 +40°C° 0 mm 3 mps 735 mmHg 16%
    12:00 +44°C° 0 mm 4 mps 734 mmHg 12%
    13:00 +44°C° 0 mm 4 mps 733 mmHg 11%
    14:00 +44°C° 0 mm 4 mps 733 mmHg 10%
    15:00 +45°C° 0 mm 4 mps 732 mmHg 9%
    16:00 +44°C° 0 mm 3 mps 732 mmHg 10%
    17:00 +41°C° 0 mm 2 mps 732 mmHg 11%
    18:00 +40°C° 0 mm 1 mps 732 mmHg 12%
    19:00 +39°C° 0 mm 1 mps 732 mmHg 12%
    20:00 +37°C° 0 mm 1 mps 733 mmHg 13%
    21:00 +36°C° 0 mm 1 mps 733 mmHg 14%
    22:00 +36°C° 0 mm 1 mps 733 mmHg 14%
    23:00 +35°C° 0 mm 1 mps 733 mmHg 15%

    Day after tomorrow, 12 April, Sunday

    Time Temperature Precipitation Wind Pressure Humidity
    00:00 +35°C° 0 mm 1 mps 733 mmHg 15%
    01:00 +35°C° 0 mm 2 mps 733 mmHg 16%
    02:00 +35°C° 0 mm 2 mps 733 mmHg 17%
    03:00 +35°C° 0 mm 3 mps 733 mmHg 18%
    04:00 +33°C° 0 mm 3 mps 733 mmHg 23%
    05:00 +31°C° 0 mm 3 mps 733 mmHg 28%
    06:00 +30°C° 0 mm 2 mps 733 mmHg 33%
    07:00 +33°C° 0 mm 3 mps 734 mmHg 36%
    08:00 +35°C° 0 mm 3 mps 735 mmHg 38%
    09:00 +37°C° 0 mm 4 mps 736 mmHg 41%
    10:00 +39°C° 0 mm 3 mps 735 mmHg 34%
    11:00 +41°C° 0 mm 2 mps 735 mmHg 26%
    12:00 +43°C° 0 mm 2 mps 734 mmHg 19%
    13:00 +43°C° 0 mm 2 mps 733 mmHg 18%
    14:00 +43°C° 0 mm 2 mps 732 mmHg 17%
    15:00 +45°C° 0 mm 2 mps 731 mmHg 15%
    16:00 +43°C° 0 mm 2 mps 732 mmHg 17%
    17:00 +42°C° 0 mm 2 mps 732 mmHg 18%
    18:00 +40°C° 0 mm 2 mps 732 mmHg 20%
    19:00 +40°C° 0 mm 2 mps 732 mmHg 21%
    20:00 +39°C° 0 mm 2 mps 733 mmHg 23%
    21:00 +38°C° 0 mm 2 mps 733 mmHg 25%
    22:00 +37°C° 0 mm 2 mps 733 mmHg 26%
    23:00 +36°C° 0 mm 2 mps 733 mmHg 28%

    13 April, Monday

    Time Temperature Precipitation Wind Pressure Humidity
    00:00 +34°C° 0 mm 1 mps 733 mmHg 30%
    01:00 +34°C° 0 mm 1 mps 732 mmHg 31%
    02:00 +34°C° 0 mm 2 mps 732 mmHg 32%
    03:00 +34°C° 0 mm 2 mps 732 mmHg 33%
    04:00 +32°C° 0 mm 2 mps 732 mmHg 38%
    05:00 +31°C° 0 mm 3 mps 733 mmHg 43%
    06:00 +31°C° 0 mm 3 mps 733 mmHg 49%
    07:00 +33°C° 0 mm 3 mps 734 mmHg 45%
    08:00 +35°C° 0 mm 4 mps 734 mmHg 42%
    09:00 +37°C° 0 mm 4 mps 735 mmHg 38%
    10:00 +39°C° 0 mm 3 mps 734 mmHg 32%
    11:00 +41°C° 0 mm 2 mps 734 mmHg 25%
    12:00 +43°C° 0 mm 1 mps 733 mmHg 19%
    13:00 +45°C° 0 mm 2 mps 732 mmHg 17%
    14:00 +45°C° 0 mm 2 mps 732 mmHg 15%
    15:00 +46°C° 0 mm 2 mps 731 mmHg 14%
    16:00 +43°C° 0 mm 2 mps 731 mmHg 14%
    17:00 +42°C° 0 mm 2 mps 731 mmHg 15%
    18:00 +41°C° 0 mm 2 mps 730 mmHg 15%
    19:00 +40°C° 0 mm 2 mps 731 mmHg 16%
    20:00 +39°C° 0 mm 2 mps 731 mmHg 17%
    21:00 +38°C° 0 mm 2 mps 732 mmHg 18%
    22:00 +37°C° 0 mm 2 mps 732 mmHg 19%
    23:00 +36°C° 0 mm 2 mps 732 mmHg 20%

    14 April, Tuesday

    Time Temperature Precipitation Wind Pressure Humidity
    00:00 +34°C° 0 mm 1 mps 732 mmHg 21%
    01:00 +35°C° 0 mm 2 mps 731 mmHg 23%
    02:00 +34°C° 0 mm 2 mps 731 mmHg 24%
    03:00 +32°C° 0 mm 2 mps 731 mmHg 26%
    04:00 +32°C° 0 mm 2 mps 731 mmHg 31%
    05:00 +33°C° 0 mm 3 mps 732 mmHg 37%
    06:00 +32°C° 0 mm 4 mps 732 mmHg 43%
    07:00 +34°C° 0 mm 4 mps 733 mmHg 40%
    08:00 +36°C° 0 mm 5 mps 733 mmHg 37%
    09:00 +39°C° 0 mm 5 mps 734 mmHg 34%
    10:00 +40°C° 0 mm 5 mps 733 mmHg 30%
    11:00 +42°C° 0 mm 4 mps 733 mmHg 26%
    12:00 +44°C° 0 mm 3 mps 733 mmHg 22%
    13:00 +44°C° 0 mm 3 mps 732 mmHg 20%
    14:00 +45°C° 0 mm 3 mps 731 mmHg 18%
    15:00 +45°C° 0 mm 3 mps 730 mmHg 16%
    16:00 +44°C° 0 mm 3 mps 730 mmHg 17%
    17:00 +42°C° 0 mm 2 mps 730 mmHg 18%
    18:00 +41°C° 0 mm 2 mps 730 mmHg 18%
    19:00 +40°C° 0 mm 2 mps 731 mmHg 20%
    20:00 +39°C° 0 mm 2 mps 731 mmHg 22%
    21:00 +38°C° 0 mm 2 mps 732 mmHg 24%
    22:00 +38°C° 0 mm 2 mps 732 mmHg 26%
    23:00 +37°C° 0 mm 2 mps 732 mmHg 28%

    15 April, Wednesday

    Time Temperature Precipitation Wind Pressure Humidity
    00:00 +36°C° 0 mm 2 mps 732 mmHg 29%
    01:00 +35°C° 0 mm 3 mps 732 mmHg 30%
    02:00 +35°C° 0 mm 3 mps 732 mmHg 31%
    03:00 +34°C° 0 mm 4 mps 732 mmHg 32%
    04:00 +34°C° 0 mm 4 mps 732 mmHg 33%
    05:00 +33°C° 0 mm 3 mps 732 mmHg 34%
    06:00 +31°C° 0 mm 3 mps 733 mmHg 35%
    07:00 +33°C° 0 mm 3 mps 733 mmHg 31%
    08:00 +35°C° 0 mm 4 mps 734 mmHg 28%
    09:00 +37°C° 0 mm 5 mps 735 mmHg 24%
    10:00 +39°C° 0 mm 5 mps 734 mmHg 22%
    11:00 +41°C° 0 mm 5 mps 734 mmHg 19%
    12:00 +43°C° 0 mm 5 mps 734 mmHg 17%
    13:00 +43°C° 0 mm 5 mps 733 mmHg 16%
    14:00 +45°C° 0 mm 5 mps 732 mmHg 16%
    15:00 +45°C° 0 mm 5 mps 731 mmHg 15%
    16:00 +43°C° 0 mm 5 mps 731 mmHg 16%
    17:00 +42°C° 0 mm 5 mps 731 mmHg 17%
    18:00 +41°C° 0 mm 5 mps 731 mmHg 17%
    19:00 +40°C° 0 mm 6 mps 732 mmHg 22%
    20:00 +38°C° 0 mm 7 mps 732 mmHg 27%
    21:00 +37°C° 0 mm 8 mps 733 mmHg 32%
    22:00 +35°C° 0 mm 8 mps 734 mmHg 34%
    23:00 +34°C° 0 mm 8 mps 734 mmHg 36%
    Show more